Time,TemperatureF,DewpointF,PressureIn,WindDirection,WindDirectionDegrees,WindSpeedMPH,WindSpeedGustMPH,Humidity,HourlyPrecipIn,Conditions,Clouds,dailyrainin,SoftwareType,DateUTC
2012-12-02 00:00:00,43.0,42.2,29.26,SE,135,0.0,0.0,97,0.00,,,0.00,WUHU21623XXSP,2012-12-02 08:00:00,
2012-12-02 00:05:00,43.0,42.2,29.25,SE,135,0.0,0.0,97,0.00,,,0.00,WUHU21623XXSP,2012-12-02 08:05:00,
2012-12-02 00:10:00,43.0,42.2,29.23,ENE,67,0.0,0.0,97,0.00,,,0.00,WUHU21623XXSP,2012-12-02 08:10:00,
2012-12-02 00:15:00,43.0,42.4,29.23,ENE,67,0.0,0.0,98,0.00,,,0.00,WUHU21623XXSP,2012-12-02 08:15:00,
2012-12-02 00:20:00,43.0,42.4,29.22,ENE,67,0.0,0.0,98,0.00,,,0.00,WUHU21623XXSP,2012-12-02 08:20:00,
2012-12-02 00:25:00,43.0,42.4,29.21,ENE,67,0.0,0.0,98,0.00,,,0.00,WUHU21623XXSP,2012-12-02 08:25:00,
2012-12-02 00:30:00,43.0,42.4,29.21,ENE,67,0.0,0.0,98,0.00,,,0.00,WUHU21623XXSP,2012-12-02 08:30:00,
2012-12-02 00:35:00,43.0,42.4,29.20,ENE,67,0.0,0.0,98,0.00,,,0.00,WUHU21623XXSP,2012-12-02 08:35:00,
2012-12-02 00:40:00,43.0,42.4,29.20,ENE,67,0.0,0.0,98,0.00,,,0.00,WUHU21623XXSP,2012-12-02 08:40:00,
2012-12-02 00:45:00,43.0,42.4,29.20,ENE,67,0.0,0.0,98,0.00,,,0.00,WUHU21623XXSP,2012-12-02 08:45:00,
2012-12-02 00:50:00,43.0,42.4,29.19,ENE,67,0.0,0.0,98,0.00,,,0.00,WUHU21623XXSP,2012-12-02 08:50:00,
2012-12-02 00:55:00,43.0,42.4,29.19,ENE,67,0.0,0.0,98,0.00,,,0.00,WUHU21623XXSP,2012-12-02 08:55:00,
2012-12-02 01:00:00,43.0,42.4,29.19,ENE,67,0.0,0.0,98,0.00,,,0.00,WUHU21623XXSP,2012-12-02 09:00:00,
2012-12-02 01:05:00,43.0,42.4,29.18,ENE,67,0.0,0.0,98,0.00,,,0.00,WUHU21623XXSP,2012-12-02 09:05:00,
2012-12-02 01:10:00,43.0,42.4,29.18,ENE,67,0.0,0.0,98,0.00,,,0.00,WUHU21623XXSP,2012-12-02 09:10:00,
2012-12-02 01:15:00,43.0,42.4,29.18,ENE,67,0.0,0.0,98,0.00,,,0.00,WUHU21623XXSP,2012-12-02 09:15:00,
2012-12-02 01:20:00,43.0,42.4,29.18,East,90,0.0,0.0,98,0.00,,,0.00,WUHU21623XXSP,2012-12-02 09:20:00,
2012-12-02 01:25:00,43.0,42.4,29.19,SE,135,0.0,0.0,98,0.00,,,0.00,WUHU21623XXSP,2012-12-02 09:25:00,
2012-12-02 01:30:00,43.0,42.4,29.18,South,180,0.0,0.0,98,0.00,,,0.00,WUHU21623XXSP,2012-12-02 09:30:00,
2012-12-02 01:35:00,43.0,42.4,29.18,ENE,67,0.0,0.0,98,0.00,,,0.00,WUHU21623XXSP,2012-12-02 09:35:00,
2012-12-02 01:40:00,43.2,42.6,29.18,ENE,67,0.0,0.0,98,0.00,,,0.00,WUHU21623XXSP,2012-12-02 09:40:00,
2012-12-02 01:45:00,43.3,42.8,29.18,ENE,67,0.0,0.0,98,0.00,,,0.00,WUHU21623XXSP,2012-12-02 09:45:00,
2012-12-02 01:51:00,43.3,42.8,29.19,ENE,67,0.0,0.0,98,0.00,,,0.00,WUHU21623XXSP,2012-12-02 09:51:00,
2012-12-02 01:56:00,43.3,42.8,29.18,SE,135,0.0,0.0,98,0.00,,,0.00,WUHU21623XXSP,2012-12-02 09:56:00,
2012-12-02 02:01:00,43.3,42.8,29.19,ESE,112,0.0,0.0,98,0.00,,,0.00,WUHU21623XXSP,2012-12-02 10:01:00,
2012-12-02 02:06:00,43.3,42.8,29.19,ESE,112,0.0,0.0,98,0.00,,,0.00,WUHU21623XXSP,2012-12-02 10:06:00,
2012-12-02 02:11:00,43.3,42.8,29.19,ESE,112,0.0,0.0,98,0.00,,,0.00,WUHU21623XXSP,2012-12-02 10:11:00,
2012-12-02 02:16:00,43.3,42.8,29.19,NE,45,0.0,0.0,98,0.00,,,0.00,WUHU21623XXSP,2012-12-02 10:16:00,
2012-12-02 02:21:00,43.3,42.8,29.20,NE,45,0.0,0.0,98,0.00,,,0.00,WUHU21623XXSP,2012-12-02 10:21:00,
2012-12-02 02:26:00,43.3,42.8,29.20,NE,45,0.0,0.0,98,0.00,,,0.00,WUHU21623XXSP,2012-12-02 10:26:00,
2012-12-02 02:31:00,43.3,42.8,29.20,NE,45,0.0,0.0,98,0.00,,,0.00,WUHU21623XXSP,2012-12-02 10:31:00,
2012-12-02 02:36:00,43.3,42.8,29.21,NE,45,0.0,0.0,98,0.00,,,0.00,WUHU21623XXSP,2012-12-02 10:36:00,
2012-12-02 02:41:00,43.3,42.8,29.20,ESE,112,0.0,0.0,98,0.00,,,0.00,WUHU21623XXSP,2012-12-02 10:41:00,
2012-12-02 02:46:00,43.3,42.8,29.20,ENE,67,0.0,0.0,98,0.00,,,0.00,WUHU21623XXSP,2012-12-02 10:46:00,
2012-12-02 02:51:00,43.3,42.8,29.21,East,90,0.0,0.0,98,0.00,,,0.00,WUHU21623XXSP,2012-12-02 10:51:00,
2012-12-02 02:56:00,43.3,42.8,29.20,East,90,0.0,0.0,98,0.00,,,0.00,WUHU21623XXSP,2012-12-02 10:56:00,
2012-12-02 03:01:00,43.3,42.8,29.20,East,90,0.0,0.0,98,0.00,,,0.00,WUHU21623XXSP,2012-12-02 11:01:00,
2012-12-02 03:06:00,43.3,42.8,29.20,East,90,0.0,0.0,98,0.00,,,0.00,WUHU21623XXSP,2012-12-02 11:06:00,
2012-12-02 03:11:00,43.3,42.8,29.20,East,90,0.0,0.0,98,0.00,,,0.00,WUHU21623XXSP,2012-12-02 11:11:00,
2012-12-02 03:16:00,43.3,42.8,29.20,East,90,0.0,0.0,98,0.00,,,0.00,WUHU21623XXSP,2012-12-02 11:16:00,
2012-12-02 03:21:00,43.3,42.8,29.20,East,90,0.0,0.0,98,0.00,,,0.00,WUHU21623XXSP,2012-12-02 11:21:00,
2012-12-02 03:26:00,43.3,42.8,29.20,East,90,0.0,0.0,98,0.00,,,0.00,WUHU21623XXSP,2012-12-02 11:26:00,
2012-12-02 03:31:00,43.3,42.8,29.20,East,90,0.0,0.0,98,0.00,,,0.00,WUHU21623XXSP,2012-12-02 11:31:00,
2012-12-02 03:36:00,43.3,42.8,29.19,East,90,0.0,0.0,98,0.00,,,0.00,WUHU21623XXSP,2012-12-02 11:36:00,
2012-12-02 03:41:00,43.2,42.6,29.19,SE,135,0.0,0.0,98,0.00,,,0.00,WUHU21623XXSP,2012-12-02 11:41:00,
2012-12-02 03:46:00,43.2,42.6,29.18,SE,135,0.0,0.0,98,0.00,,,0.00,WUHU21623XXSP,2012-12-02 11:46:00,
2012-12-02 03:51:00,43.2,42.6,29.18,SE,135,0.0,0.0,98,0.00,,,0.00,WUHU21623XXSP,2012-12-02 11:51:00,
2012-12-02 03:56:00,43.2,42.6,29.18,SE,135,0.0,0.0,98,0.00,,,0.00,WUHU21623XXSP,2012-12-02 11:56:00,
2012-12-02 04:01:00,43.2,42.6,29.18,SE,135,0.0,0.0,98,0.00,,,0.00,WUHU21623XXSP,2012-12-02 12:01:00,
2012-12-02 04:06:00,43.0,42.7,29.17,ESE,112,0.0,0.0,99,0.00,,,0.00,WUHU21623XXSP,2012-12-02 12:06:00,
2012-12-02 04:11:00,43.0,42.4,29.17,ESE,112,0.0,0.0,98,0.00,,,0.00,WUHU21623XXSP,2012-12-02 12:11:00,
2012-12-02 04:16:00,43.0,42.4,29.17,ESE,112,0.0,0.0,98,0.00,,,0.00,WUHU21623XXSP,2012-12-02 12:16:00,
2012-12-02 04:21:00,43.0,42.7,29.16,ESE,112,0.0,0.0,98,0.00,,,0.00,WUHU21623XXSP,2012-12-02 12:21:00,
2012-12-02 04:27:00,43.0,42.7,29.15,ESE,112,0.0,0.0,99,0.00,,,0.00,WUHU21623XXSP,2012-12-02 12:27:00,
2012-12-02 04:32:00,43.0,42.7,29.15,ESE,112,0.0,0.0,99,0.00,,,0.00,WUHU21623XXSP,2012-12-02 12:32:00,
2012-12-02 04:37:00,43.0,42.7,29.15,ESE,112,0.0,0.0,99,0.00,,,0.00,WUHU21623XXSP,2012-12-02 12:37:00,
2012-12-02 04:42:00,43.0,42.4,29.15,ESE,112,0.0,0.0,99,0.00,,,0.00,WUHU21623XXSP,2012-12-02 12:42:00,
2012-12-02 04:47:00,43.0,42.7,29.16,SSE,157,0.0,0.0,99,0.00,,,0.00,WUHU21623XXSP,2012-12-02 12:47:00,
2012-12-02 04:52:00,43.0,42.7,29.16,SSE,157,0.0,0.0,99,0.00,,,0.00,WUHU21623XXSP,2012-12-02 12:52:00,
2012-12-02 04:57:00,43.0,42.7,29.16,SSE,157,0.0,0.0,99,0.00,,,0.00,WUHU21623XXSP,2012-12-02 12:57:00,
2012-12-02 05:02:00,43.0,42.7,29.16,SSE,157,0.0,0.0,99,0.00,,,0.00,WUHU21623XXSP,2012-12-02 13:02:00,
2012-12-02 05:07:00,43.0,42.7,29.17,SSE,157,0.0,0.0,99,0.00,,,0.00,WUHU21623XXSP,2012-12-02 13:07:00,
2012-12-02 05:12:00,43.0,42.7,29.17,SSE,157,0.0,0.0,99,0.00,,,0.00,WUHU21623XXSP,2012-12-02 13:12:00,
2012-12-02 05:17:00,43.0,42.7,29.17,SSE,157,0.0,0.0,99,0.00,,,0.00,WUHU21623XXSP,2012-12-02 13:17:00,
2012-12-02 05:22:00,43.0,42.7,29.17,NNE,22,0.0,0.0,99,0.00,,,0.00,WUHU21623XXSP,2012-12-02 13:22:00,
2012-12-02 05:27:00,43.0,42.7,29.17,NNE,22,0.0,0.0,99,0.00,,,0.00,WUHU21623XXSP,2012-12-02 13:27:00,
2012-12-02 05:32:00,43.2,42.9,29.17,NNE,22,0.0,0.0,99,0.00,,,0.00,WUHU21623XXSP,2012-12-02 13:32:00,
2012-12-02 05:37:00,43.0,42.7,29.18,NNE,22,0.0,0.0,99,0.00,,,0.00,WUHU21623XXSP,2012-12-02 13:37:00,
2012-12-02 05:42:00,43.0,42.7,29.18,NNE,22,0.0,0.0,99,0.00,,,0.00,WUHU21623XXSP,2012-12-02 13:42:00,
2012-12-02 05:47:00,43.0,42.7,29.17,NNE,22,0.0,0.0,99,0.00,,,0.00,WUHU21623XXSP,2012-12-02 13:47:00,
2012-12-02 05:52:00,43.0,42.7,29.18,NNE,22,0.0,0.0,99,0.00,,,0.00,WUHU21623XXSP,2012-12-02 13:52:00,
2012-12-02 05:57:00,43.0,42.7,29.19,NNE,22,0.0,0.0,99,0.00,,,0.00,WUHU21623XXSP,2012-12-02 13:57:00,
2012-12-02 06:02:00,43.0,42.7,29.19,NNE,22,0.0,0.0,99,0.00,,,0.00,WUHU21623XXSP,2012-12-02 14:02:00,
2012-12-02 06:07:00,43.0,42.7,29.19,NNE,22,0.0,0.0,99,0.00,,,0.00,WUHU21623XXSP,2012-12-02 14:07:00,
2012-12-02 06:12:00,43.0,42.7,29.19,NNE,22,0.0,0.0,99,0.00,,,0.00,WUHU21623XXSP,2012-12-02 14:12:00,
2012-12-02 06:17:00,43.2,42.9,29.19,NNE,22,0.0,0.0,99,0.00,,,0.00,WUHU21623XXSP,2012-12-02 14:17:00,
2012-12-02 06:22:00,43.2,42.9,29.20,West,270,0.0,0.0,99,0.00,,,0.00,WUHU21623XXSP,2012-12-02 14:22:00,
2012-12-02 06:27:00,43.2,42.9,29.20,North,0,0.0,0.0,99,0.00,,,0.00,WUHU21623XXSP,2012-12-02 14:27:00,
2012-12-02 06:32:00,43.2,42.9,29.20,North,0,0.0,0.0,99,0.00,,,0.00,WUHU21623XXSP,2012-12-02 14:32:00,
2012-12-02 06:37:00,43.2,42.9,29.20,North,0,0.0,0.0,99,0.00,,,0.00,WUHU21623XXSP,2012-12-02 14:37:00,
2012-12-02 06:42:00,43.2,42.9,29.20,North,0,0.0,0.0,99,0.00,,,0.00,WUHU21623XXSP,2012-12-02 14:42:00,
2012-12-02 06:47:00,43.2,42.9,29.20,North,0,0.0,0.0,99,0.00,,,0.00,WUHU21623XXSP,2012-12-02 14:47:00,
2012-12-02 06:52:00,43.2,42.9,29.20,East,90,0.0,0.0,99,0.00,,,0.00,WUHU21623XXSP,2012-12-02 14:52:00,
2012-12-02 06:57:00,43.2,42.9,29.21,SE,135,0.0,0.0,99,0.00,,,0.00,WUHU21623XXSP,2012-12-02 14:57:00,
2012-12-02 07:03:00,43.2,42.9,29.22,NE,45,0.0,0.0,99,0.00,,,0.00,WUHU21623XXSP,2012-12-02 15:03:00,
2012-12-02 07:08:00,43.3,43.1,29.22,ESE,112,0.0,0.0,99,0.00,,,0.00,WUHU21623XXSP,2012-12-02 15:08:00,
2012-12-02 07:13:00,43.3,43.1,29.22,ESE,112,0.0,0.0,99,0.00,,,0.00,WUHU21623XXSP,2012-12-02 15:13:00,
2012-12-02 07:18:00,43.3,43.1,29.22,SE,135,0.0,0.0,99,0.00,,,0.00,WUHU21623XXSP,2012-12-02 15:18:00,
2012-12-02 07:23:00,43.3,43.1,29.23,NE,45,0.0,0.0,99,0.00,,,0.00,WUHU21623XXSP,2012-12-02 15:23:00,
2012-12-02 07:28:00,43.5,43.3,29.24,NE,45,0.0,0.0,99,0.00,,,0.00,WUHU21623XXSP,2012-12-02 15:28:00,
2012-12-02 07:33:00,43.5,43.3,29.24,SSE,157,0.0,0.0,99,0.00,,,0.00,WUHU21623XXSP,2012-12-02 15:33:00,
2012-12-02 07:38:00,43.5,43.3,29.24,NE,45,0.0,0.0,99,0.00,,,0.00,WUHU21623XXSP,2012-12-02 15:38:00,
2012-12-02 07:43:00,43.5,43.3,29.25,SSE,157,0.0,0.0,99,0.00,,,0.00,WUHU21623XXSP,2012-12-02 15:43:00,
2012-12-02 07:48:00,43.5,43.3,29.25,SSE,157,0.0,0.0,99,0.00,,,0.00,WUHU21623XXSP,2012-12-02 15:48:00,
2012-12-02 07:53:00,43.5,43.3,29.25,SE,135,0.0,0.0,99,0.00,,,0.00,WUHU21623XXSP,2012-12-02 15:53:00,
2012-12-02 07:58:00,43.7,43.4,29.26,SSE,157,0.0,0.0,99,0.00,,,0.00,WUHU21623XXSP,2012-12-02 15:58:00,
2012-12-02 08:03:00,43.7,43.4,29.26,South,180,0.0,0.0,99,0.00,,,0.00,WUHU21623XXSP,2012-12-02 16:03:00,
2012-12-02 08:08:00,43.7,43.4,29.27,SSE,157,0.0,0.0,99,0.00,,,0.00,WUHU21623XXSP,2012-12-02 16:08:00,
2012-12-02 08:13:00,43.7,43.4,29.28,SSE,157,0.0,0.0,99,0.00,,,0.00,WUHU21623XXSP,2012-12-02 16:13:00,
2012-12-02 08:18:00,43.7,43.4,29.28,WSW,247,0.0,0.0,99,0.00,,,0.00,WUHU21623XXSP,2012-12-02 16:18:00,
2012-12-02 08:23:00,43.9,43.6,29.28,NW,315,0.0,0.0,99,0.00,,,0.00,WUHU21623XXSP,2012-12-02 16:23:00,
2012-12-02 08:28:00,43.9,43.6,29.29,South,180,0.0,0.0,99,0.00,,,0.00,WUHU21623XXSP,2012-12-02 16:28:00,
2012-12-02 08:33:00,43.9,43.6,29.30,SSW,202,0.0,0.0,99,0.00,,,0.00,WUHU21623XXSP,2012-12-02 16:33:00,
2012-12-02 08:38:00,43.9,43.6,29.30,SW,225,0.0,0.0,99,0.00,,,0.00,WUHU21623XXSP,2012-12-02 16:38:00,
2012-12-02 08:43:00,43.9,43.6,29.30,South,180,0.0,0.0,99,0.00,,,0.00,WUHU21623XXSP,2012-12-02 16:43:00,
2012-12-02 08:48:00,43.9,43.6,29.31,South,180,0.0,0.0,99,0.00,,,0.00,WUHU21623XXSP,2012-12-02 16:48:00,
2012-12-02 08:53:00,43.9,43.6,29.31,SSW,202,0.0,0.0,99,0.00,,,0.00,WUHU21623XXSP,2012-12-02 16:53:00,
2012-12-02 08:58:00,43.9,43.6,29.32,South,180,0.0,0.0,99,0.00,,,0.00,WUHU21623XXSP,2012-12-02 16:58:00,
2012-12-02 09:03:00,43.9,43.6,29.32,SW,225,0.0,0.0,99,0.00,,,0.00,WUHU21623XXSP,2012-12-02 17:03:00,
2012-12-02 09:08:00,43.9,43.6,29.32,South,180,0.0,0.0,99,0.00,,,0.00,WUHU21623XXSP,2012-12-02 17:08:00,
2012-12-02 09:13:00,43.9,43.6,29.33,SSE,157,0.0,0.0,99,0.00,,,0.00,WUHU21623XXSP,2012-12-02 17:13:00,
2012-12-02 09:18:00,43.9,43.6,29.34,SSE,157,0.0,0.0,99,0.00,,,0.00,WUHU21623XXSP,2012-12-02 17:18:00,
2012-12-02 09:23:00,43.7,43.6,29.34,SSW,202,0.0,0.0,99,0.00,,,0.00,WUHU21623XXSP,2012-12-02 17:23:00,
2012-12-02 09:28:00,43.7,43.4,29.35,North,0,0.0,0.0,99,0.00,,,0.00,WUHU21623XXSP,2012-12-02 17:28:00,
2012-12-02 09:33:00,43.5,43.3,29.35,NNE,22,0.0,0.0,99,0.00,,,0.00,WUHU21623XXSP,2012-12-02 17:33:00,
2012-12-02 09:38:00,43.5,43.3,29.35,NNE,22,0.0,0.0,99,0.00,,,0.00,WUHU21623XXSP,2012-12-02 17:38:00,
2012-12-02 09:43:00,43.5,43.3,29.36,ESE,112,0.0,0.0,99,0.00,,,0.00,WUHU21623XXSP,2012-12-02 17:43:00,
2012-12-02 09:48:00,43.7,43.4,29.36,ESE,112,0.0,0.0,99,0.00,,,0.00,WUHU21623XXSP,2012-12-02 17:48:00,
2012-12-02 09:53:00,43.5,43.3,29.36,SSE,157,0.0,0.0,99,0.00,,,0.00,WUHU21623XXSP,2012-12-02 17:53:00,
2012-12-02 09:58:00,43.7,43.4,29.37,ESE,112,0.0,0.0,99,0.00,,,0.00,WUHU21623XXSP,2012-12-02 17:58:00,
2012-12-02 10:03:00,43.7,43.4,29.37,SE,135,0.0,0.0,99,0.00,,,0.00,WUHU21623XXSP,2012-12-02 18:03:00,
2012-12-02 10:08:00,43.7,43.4,29.37,NE,45,0.0,0.0,99,0.00,,,0.00,WUHU21623XXSP,2012-12-02 18:08:00,
2012-12-02 10:13:00,43.9,43.6,29.38,ENE,67,0.0,0.0,99,0.00,,,0.00,WUHU21623XXSP,2012-12-02 18:13:00,
2012-12-02 10:18:00,43.9,43.6,29.38,WSW,247,0.0,0.0,99,0.00,,,0.00,WUHU21623XXSP,2012-12-02 18:18:00,
2012-12-02 10:23:00,44.1,43.8,29.38,SE,135,0.0,0.0,99,0.00,,,0.00,WUHU21623XXSP,2012-12-02 18:23:00,
2012-12-02 10:28:00,44.2,44.0,29.39,SE,135,0.0,0.0,99,0.00,,,0.00,WUHU21623XXSP,2012-12-02 18:28:00,
2012-12-02 10:33:00,44.2,44.0,29.39,ESE,112,0.0,0.0,99,0.00,,,0.00,WUHU21623XXSP,2012-12-02 18:33:00,
2012-12-02 10:38:00,44.2,44.0,29.39,SSE,157,0.0,0.0,99,0.00,,,0.00,WUHU21623XXSP,2012-12-02 18:38:00,
2012-12-02 10:43:00,44.2,44.0,29.39,ENE,67,0.0,0.0,99,0.00,,,0.00,WUHU21623XXSP,2012-12-02 18:43:00,
2012-12-02 10:48:00,44.2,44.0,29.40,SE,135,0.0,0.0,99,0.00,,,0.00,WUHU21623XXSP,2012-12-02 18:48:00,
2012-12-02 10:53:00,44.2,44.0,29.40,SE,135,0.0,0.0,99,0.00,,,0.00,WUHU21623XXSP,2012-12-02 18:53:00,
2012-12-02 10:58:00,44.2,44.0,29.40,ESE,112,0.0,0.0,99,0.00,,,0.00,WUHU21623XXSP,2012-12-02 18:58:00,
2012-12-02 11:03:00,44.2,44.0,29.40,SSE,157,0.0,0.0,99,0.00,,,0.00,WUHU21623XXSP,2012-12-02 19:03:00,
2012-12-02 11:08:00,44.2,44.0,29.40,SE,135,0.0,0.0,99,0.00,,,0.00,WUHU21623XXSP,2012-12-02 19:08:00,
2012-12-02 11:13:00,44.2,44.1,29.40,SE,135,0.0,0.0,99,0.00,,,0.00,WUHU21623XXSP,2012-12-02 19:13:00,
2012-12-02 11:18:00,44.2,44.0,29.40,South,180,0.0,0.0,99,0.00,,,0.00,WUHU21623XXSP,2012-12-02 19:18:00,
2012-12-02 11:23:00,44.2,44.0,29.40,NNE,22,0.0,0.0,99,0.00,,,0.00,WUHU21623XXSP,2012-12-02 19:23:00,
2012-12-02 11:28:00,44.2,43.7,29.41,ESE,112,0.0,0.0,98,0.00,,,0.00,WUHU21623XXSP,2012-12-02 19:28:00,
2012-12-02 11:33:00,44.2,43.7,29.41,SE,135,0.0,0.0,98,0.00,,,0.00,WUHU21623XXSP,2012-12-02 19:33:00,
2012-12-02 11:38:00,44.2,43.7,29.41,East,90,0.0,0.0,98,0.00,,,0.00,WUHU21623XXSP,2012-12-02 19:38:00,
2012-12-02 11:43:00,44.2,43.7,29.42,SSE,157,0.0,0.0,98,0.00,,,0.00,WUHU21623XXSP,2012-12-02 19:43:00,
2012-12-02 11:48:00,44.2,43.7,29.42,SE,135,0.0,0.0,98,0.00,,,0.00,WUHU21623XXSP,2012-12-02 19:48:00,
2012-12-02 11:53:00,44.1,43.5,29.42,SSE,157,0.0,0.0,98,0.00,,,0.00,WUHU21623XXSP,2012-12-02 19:53:00,
2012-12-02 11:58:00,44.2,43.7,29.43,East,90,0.0,0.0,98,0.00,,,0.00,WUHU21623XXSP,2012-12-02 19:58:00,
2012-12-02 12:03:00,44.2,43.7,29.43,SSE,157,0.0,0.0,98,0.00,,,0.00,WUHU21623XXSP,2012-12-02 20:03:00,
2012-12-02 12:08:00,44.2,43.7,29.43,NNE,22,0.0,0.0,98,0.00,,,0.00,WUHU21623XXSP,2012-12-02 20:08:00,
2012-12-02 12:13:00,44.2,43.7,29.43,West,270,0.0,0.0,98,0.00,,,0.00,WUHU21623XXSP,2012-12-02 20:13:00,
2012-12-02 12:18:00,44.2,43.7,29.43,SE,135,0.0,0.0,98,0.00,,,0.00,WUHU21623XXSP,2012-12-02 20:18:00,
2012-12-02 12:23:00,44.4,43.9,29.43,SE,135,0.0,0.0,98,0.00,,,0.00,WUHU21623XXSP,2012-12-02 20:23:00,
2012-12-02 12:29:00,44.2,43.7,29.44,ENE,67,0.0,0.0,98,0.00,,,0.00,WUHU21623XXSP,2012-12-02 20:29:00,
2012-12-02 12:34:00,44.2,43.7,29.44,SSW,202,0.0,0.0,98,0.00,,,0.00,WUHU21623XXSP,2012-12-02 20:34:00,
2012-12-02 12:39:00,44.2,43.7,29.45,ESE,112,0.0,0.0,98,0.00,,,0.00,WUHU21623XXSP,2012-12-02 20:39:00,
2012-12-02 12:44:00,44.2,43.7,29.45,South,180,0.0,0.0,98,0.00,,,0.00,WUHU21623XXSP,2012-12-02 20:44:00,
2012-12-02 12:49:00,44.2,43.7,29.45,ESE,112,0.0,0.0,98,0.00,,,0.00,WUHU21623XXSP,2012-12-02 20:49:00,
2012-12-02 12:54:00,44.1,43.5,29.45,South,180,0.0,0.0,98,0.00,,,0.00,WUHU21623XXSP,2012-12-02 20:54:00,
2012-12-02 12:59:00,44.2,43.7,29.46,SSE,157,0.0,0.0,98,0.00,,,0.00,WUHU21623XXSP,2012-12-02 20:59:00,
2012-12-02 13:04:00,44.2,43.7,29.46,SSW,202,0.0,0.0,98,0.00,,,0.00,WUHU21623XXSP,2012-12-02 21:04:00,
2012-12-02 13:09:00,44.4,43.6,29.47,NW,315,0.0,0.0,97,0.00,,,0.00,WUHU21623XXSP,2012-12-02 21:09:00,
2012-12-02 13:14:00,44.4,43.9,29.47,SE,135,0.0,0.0,98,0.00,,,0.00,WUHU21623XXSP,2012-12-02 21:14:00,
2012-12-02 13:19:00,44.4,43.9,29.47,SSE,157,0.0,0.0,98,0.00,,,0.00,WUHU21623XXSP,2012-12-02 21:19:00,
2012-12-02 13:24:00,44.4,43.9,29.48,South,180,0.0,0.0,98,0.00,,,0.00,WUHU21623XXSP,2012-12-02 21:24:00,
2012-12-02 13:29:00,44.4,43.9,29.48,SE,135,0.0,0.0,98,0.00,,,0.00,WUHU21623XXSP,2012-12-02 21:29:00,
2012-12-02 13:34:00,44.4,43.9,29.48,South,180,0.0,0.0,98,0.00,,,0.00,WUHU21623XXSP,2012-12-02 21:34:00,
2012-12-02 13:39:00,44.4,43.9,29.49,ESE,112,0.0,0.0,98,0.00,,,0.00,WUHU21623XXSP,2012-12-02 21:39:00,
2012-12-02 13:44:00,44.4,43.9,29.49,NNE,22,0.0,0.0,98,0.00,,,0.00,WUHU21623XXSP,2012-12-02 21:44:00,
2012-12-02 13:49:00,44.4,43.6,29.50,South,180,0.0,0.0,97,0.00,,,0.00,WUHU21623XXSP,2012-12-02 21:49:00,
2012-12-02 13:54:00,44.4,43.6,29.50,SSE,157,0.0,0.0,97,0.00,,,0.00,WUHU21623XXSP,2012-12-02 21:54:00,
2012-12-02 13:59:00,44.4,43.6,29.50,SSE,157,0.0,0.0,97,0.00,,,0.00,WUHU21623XXSP,2012-12-02 21:59:00,
2012-12-02 14:04:00,44.4,43.6,29.50,East,90,0.0,0.0,97,0.00,,,0.00,WUHU21623XXSP,2012-12-02 22:04:00,
2012-12-02 14:09:00,44.4,43.6,29.50,SSE,157,0.0,0.0,97,0.00,,,0.00,WUHU21623XXSP,2012-12-02 22:09:00,
2012-12-02 14:14:00,44.4,43.6,29.50,ENE,67,0.0,0.0,97,0.00,,,0.00,WUHU21623XXSP,2012-12-02 22:14:00,
2012-12-02 14:19:00,44.2,43.4,29.50,ESE,112,0.0,0.0,97,0.00,,,0.00,WUHU21623XXSP,2012-12-02 22:19:00,
2012-12-02 14:24:00,44.2,43.4,29.51,ESE,112,0.0,0.0,97,0.00,,,0.00,WUHU21623XXSP,2012-12-02 22:24:00,
2012-12-02 14:29:00,44.2,43.4,29.51,SE,135,0.0,0.0,97,0.00,,,0.00,WUHU21623XXSP,2012-12-02 22:29:00,
2012-12-02 14:34:00,44.2,43.4,29.51,SE,135,0.0,0.0,97,0.00,,,0.00,WUHU21623XXSP,2012-12-02 22:34:00,
2012-12-02 14:39:00,44.2,43.4,29.52,NE,45,0.0,0.0,97,0.00,,,0.00,WUHU21623XXSP,2012-12-02 22:39:00,
2012-12-02 14:44:00,44.2,43.4,29.52,SE,135,0.0,0.0,97,0.00,,,0.00,WUHU21623XXSP,2012-12-02 22:44:00,
2012-12-02 14:49:00,44.2,43.4,29.53,SE,135,0.0,0.0,97,0.00,,,0.00,WUHU21623XXSP,2012-12-02 22:49:00,
2012-12-02 14:54:00,44.2,43.4,29.53,SW,225,0.0,0.0,97,0.00,,,0.00,WUHU21623XXSP,2012-12-02 22:54:00,
2012-12-02 14:59:00,44.2,43.4,29.53,NNW,337,0.0,0.0,97,0.00,,,0.00,WUHU21623XXSP,2012-12-02 22:59:00,
2012-12-02 15:04:00,44.2,43.4,29.53,WNW,292,0.0,0.0,97,0.00,,,0.00,WUHU21623XXSP,2012-12-02 23:04:00,
2012-12-02 15:09:00,44.2,43.4,29.53,ESE,112,0.0,0.0,97,0.00,,,0.00,WUHU21623XXSP,2012-12-02 23:09:00,
2012-12-02 15:14:00,44.2,43.4,29.54,ESE,112,0.0,0.0,97,0.00,,,0.00,WUHU21623XXSP,2012-12-02 23:14:00,
2012-12-02 15:19:00,44.1,43.3,29.54,North,0,0.0,0.0,97,0.00,,,0.00,WUHU21623XXSP,2012-12-02 23:19:00,
2012-12-02 15:24:00,44.1,43.3,29.55,SE,135,0.0,0.0,97,0.00,,,0.00,WUHU21623XXSP,2012-12-02 23:24:00,
2012-12-02 15:29:00,44.1,43.3,29.55,SE,135,0.0,0.0,97,0.00,,,0.00,WUHU21623XXSP,2012-12-02 23:29:00,
2012-12-02 15:34:00,43.9,43.1,29.55,West,270,0.0,0.0,97,0.00,,,0.00,WUHU21623XXSP,2012-12-02 23:34:00,
2012-12-02 15:40:00,43.9,42.8,29.55,ENE,67,0.0,0.0,96,0.00,,,0.00,WUHU21623XXSP,2012-12-02 23:40:00,
2012-12-02 15:45:00,43.9,42.8,29.55,SE,135,0.0,0.0,96,0.00,,,0.00,WUHU21623XXSP,2012-12-02 23:45:00,
2012-12-02 15:50:00,43.9,42.8,29.56,North,0,0.0,0.0,96,0.00,,,0.00,WUHU21623XXSP,2012-12-02 23:50:00,
2012-12-02 15:55:00,43.9,42.8,29.56,NW,315,0.0,0.0,96,0.00,,,0.00,WUHU21623XXSP,2012-12-02 23:55:00,
2012-12-02 16:00:00,43.9,42.8,29.57,SE,135,0.0,0.0,96,0.00,,,0.00,WUHU21623XXSP,2012-12-03 00:00:00,
2012-12-02 16:05:00,43.7,42.6,29.57,NE,45,0.0,0.0,96,0.00,,,0.00,WUHU21623XXSP,2012-12-03 00:05:00,
2012-12-02 16:10:00,43.7,42.6,29.57,NE,45,0.0,0.0,96,0.00,,,0.00,WUHU21623XXSP,2012-12-03 00:10:00,
2012-12-02 16:15:00,43.7,42.6,29.58,South,180,0.0,0.0,96,0.00,,,0.00,WUHU21623XXSP,2012-12-03 00:15:00,
2012-12-02 16:20:00,43.7,42.6,29.58,ENE,67,0.0,0.0,96,0.00,,,0.00,WUHU21623XXSP,2012-12-03 00:20:00,
2012-12-02 16:25:00,43.7,42.6,29.58,ENE,67,0.0,0.0,96,0.00,,,0.00,WUHU21623XXSP,2012-12-03 00:25:00,
2012-12-02 16:30:00,43.5,42.4,29.58,NE,45,0.0,0.0,96,0.00,,,0.00,WUHU21623XXSP,2012-12-03 00:30:00,
2012-12-02 16:35:00,43.5,42.4,29.58,ESE,112,0.0,0.0,96,0.00,,,0.00,WUHU21623XXSP,2012-12-03 00:35:00,
2012-12-02 16:40:00,43.5,42.4,29.58,ESE,112,0.0,0.0,96,0.00,,,0.00,WUHU21623XXSP,2012-12-03 00:40:00,
2012-12-02 16:45:00,43.5,42.7,29.58,West,270,0.0,0.0,97,0.00,,,0.00,WUHU21623XXSP,2012-12-03 00:45:00,
2012-12-02 16:50:00,43.5,42.7,29.59,West,270,0.0,0.0,97,0.00,,,0.00,WUHU21623XXSP,2012-12-03 00:50:00,
2012-12-02 16:55:00,43.5,42.7,29.58,NE,45,0.0,0.0,97,0.00,,,0.00,WUHU21623XXSP,2012-12-03 00:55:00,
2012-12-02 17:00:00,43.5,42.7,29.58,NE,45,0.0,0.0,97,0.00,,,0.00,WUHU21623XXSP,2012-12-03 01:00:00,
2012-12-02 17:05:00,43.3,42.5,29.59,NNE,22,0.0,0.0,97,0.00,,,0.00,WUHU21623XXSP,2012-12-03 01:05:00,
2012-12-02 17:10:00,43.3,42.5,29.59,SSE,157,0.0,0.0,97,0.00,,,0.00,WUHU21623XXSP,2012-12-03 01:10:00,
2012-12-02 17:15:00,43.3,42.5,29.59,NE,45,0.0,0.0,97,0.00,,,0.00,WUHU21623XXSP,2012-12-03 01:15:00,
2012-12-02 17:20:00,43.3,42.5,29.59,SSE,157,0.0,0.0,97,0.00,,,0.00,WUHU21623XXSP,2012-12-03 01:20:00,
2012-12-02 17:25:00,43.3,42.5,29.60,East,90,0.0,0.0,97,0.00,,,0.00,WUHU21623XXSP,2012-12-03 01:25:00,
2012-12-02 17:30:00,43.3,42.5,29.60,ESE,112,0.0,0.0,97,0.00,,,0.00,WUHU21623XXSP,2012-12-03 01:30:00,
2012-12-02 17:35:00,43.3,42.5,29.60,ESE,112,0.0,0.0,97,0.00,,,0.00,WUHU21623XXSP,2012-12-03 01:35:00,
2012-12-02 17:40:00,43.3,42.5,29.61,West,270,0.0,0.0,97,0.00,,,0.00,WUHU21623XXSP,2012-12-03 01:40:00,
2012-12-02 17:45:00,43.3,42.5,29.61,South,180,0.0,0.0,97,0.00,,,0.00,WUHU21623XXSP,2012-12-03 01:45:00,
2012-12-02 17:50:00,43.3,42.5,29.61,SE,135,0.0,0.0,97,0.00,,,0.00,WUHU21623XXSP,2012-12-03 01:50:00,
2012-12-02 17:55:00,43.3,42.5,29.61,West,270,0.0,0.0,97,0.00,,,0.00,WUHU21623XXSP,2012-12-03 01:55:00,
2012-12-02 18:00:00,43.3,42.5,29.61,WSW,247,0.0,0.0,97,0.00,,,0.00,WUHU21623XXSP,2012-12-03 02:00:00,
2012-12-02 18:05:00,43.3,42.5,29.61,SE,135,0.0,0.0,97,0.00,,,0.00,WUHU21623XXSP,2012-12-03 02:05:00,
2012-12-02 18:10:00,43.3,42.5,29.62,NE,45,0.0,0.0,97,0.00,,,0.00,WUHU21623XXSP,2012-12-03 02:10:00,
2012-12-02 18:15:00,43.3,42.5,29.62,ENE,67,0.0,0.0,97,0.00,,,0.00,WUHU21623XXSP,2012-12-03 02:15:00,
2012-12-02 18:20:00,43.3,42.5,29.61,SE,135,0.0,0.0,97,0.00,,,0.00,WUHU21623XXSP,2012-12-03 02:20:00,
2012-12-02 18:26:00,43.2,42.4,29.62,ESE,112,0.0,0.0,97,0.00,,,0.00,WUHU21623XXSP,2012-12-03 02:26:00,
2012-12-02 18:31:00,43.2,42.4,29.62,ESE,112,0.0,0.0,97,0.00,,,0.00,WUHU21623XXSP,2012-12-03 02:31:00,
2012-12-02 18:36:00,43.2,42.4,29.62,ENE,67,0.0,0.0,97,0.00,,,0.00,WUHU21623XXSP,2012-12-03 02:36:00,
2012-12-02 18:41:00,43.2,42.4,29.62,SE,135,0.0,0.0,97,0.00,,,0.00,WUHU21623XXSP,2012-12-03 02:41:00,
2012-12-02 18:46:00,43.2,42.4,29.62,NE,45,0.0,0.0,97,0.00,,,0.00,WUHU21623XXSP,2012-12-03 02:46:00,
2012-12-02 18:51:00,43.2,42.4,29.62,ENE,67,0.0,0.0,97,0.00,,,0.00,WUHU21623XXSP,2012-12-03 02:51:00,
2012-12-02 18:56:00,43.2,42.4,29.62,SE,135,0.0,0.0,97,0.00,,,0.00,WUHU21623XXSP,2012-12-03 02:56:00,
2012-12-02 19:01:00,43.2,42.4,29.62,West,270,0.0,0.0,97,0.00,,,0.00,WUHU21623XXSP,2012-12-03 03:01:00,
2012-12-02 19:06:00,43.3,42.5,29.62,SSE,157,0.0,0.0,97,0.00,,,0.00,WUHU21623XXSP,2012-12-03 03:06:00,
2012-12-02 19:11:00,43.3,42.5,29.63,NE,45,0.2,0.2,97,0.00,,,0.00,WUHU21623XXSP,2012-12-03 03:11:00,
2012-12-02 19:17:00,43.3,42.5,29.63,SSE,157,0.0,0.2,97,0.00,,,0.00,WUHU21623XXSP,2012-12-03 03:17:00,
2012-12-02 19:22:00,43.5,42.5,29.63,West,270,0.0,0.0,98,0.00,,,0.00,WUHU21623XXSP,2012-12-03 03:22:00,
2012-12-02 19:27:00,43.5,43.0,29.63,ESE,112,0.0,0.0,98,0.00,,,0.00,WUHU21623XXSP,2012-12-03 03:27:00,
2012-12-02 19:32:00,43.7,43.2,29.63,NNE,22,0.0,0.0,98,0.00,,,0.00,WUHU21623XXSP,2012-12-03 03:32:00,
2012-12-02 19:37:00,43.7,43.2,29.63,NE,45,0.0,0.0,98,0.00,,,0.00,WUHU21623XXSP,2012-12-03 03:37:00,
2012-12-02 19:42:00,43.7,43.2,29.63,SE,135,0.0,0.0,98,0.00,,,0.00,WUHU21623XXSP,2012-12-03 03:42:00,
2012-12-02 19:47:00,43.9,43.3,29.63,SE,135,0.0,0.0,98,0.00,,,0.00,WUHU21623XXSP,2012-12-03 03:47:00,
2012-12-02 19:52:00,43.9,43.3,29.63,SSE,157,0.0,0.0,98,0.00,,,0.00,WUHU21623XXSP,2012-12-03 03:52:00,
2012-12-02 19:57:00,43.9,43.3,29.63,SE,135,0.0,0.0,98,0.00,,,0.00,WUHU21623XXSP,2012-12-03 03:57:00,
2012-12-02 20:02:00,43.9,43.3,29.64,ENE,67,0.0,4.5,98,0.00,,,0.00,WUHU21623XXSP,2012-12-03 04:02:00,
2012-12-02 20:07:00,44.1,43.5,29.64,SSE,157,0.0,4.5,98,0.00,,,0.00,WUHU21623XXSP,2012-12-03 04:07:00,
2012-12-02 20:12:00,44.1,43.5,29.65,SSE,157,0.0,0.0,98,0.00,,,0.00,WUHU21623XXSP,2012-12-03 04:12:00,
2012-12-02 20:17:00,44.2,43.7,29.65,SE,135,0.0,0.0,98,0.00,,,0.00,WUHU21623XXSP,2012-12-03 04:17:00,
2012-12-02 20:22:00,44.2,43.7,29.65,SSE,157,0.0,0.0,98,0.00,,,0.00,WUHU21623XXSP,2012-12-03 04:22:00,
2012-12-02 20:27:00,44.2,43.7,29.65,East,90,0.0,0.0,98,0.00,,,0.00,WUHU21623XXSP,2012-12-03 04:27:00,
2012-12-02 20:32:00,44.2,43.7,29.65,West,270,0.0,0.0,98,0.00,,,0.00,WUHU21623XXSP,2012-12-03 04:32:00,
2012-12-02 20:37:00,44.2,43.7,29.65,SW,225,0.0,0.0,98,0.00,,,0.00,WUHU21623XXSP,2012-12-03 04:37:00,
2012-12-02 20:42:00,44.4,43.9,29.66,East,90,0.0,0.0,98,0.00,,,0.00,WUHU21623XXSP,2012-12-03 04:42:00,
2012-12-02 20:47:00,44.4,43.9,29.66,SE,135,0.0,0.0,98,0.00,,,0.00,WUHU21623XXSP,2012-12-03 04:47:00,
2012-12-02 20:52:00,44.4,43.9,29.66,ENE,67,0.0,0.0,98,0.00,,,0.00,WUHU21623XXSP,2012-12-03 04:52:00,
2012-12-02 20:57:00,44.4,43.9,29.66,SE,135,0.0,0.0,98,0.00,,,0.00,WUHU21623XXSP,2012-12-03 04:57:00,
2012-12-02 21:00:00,44.4,43.9,29.66,North,0,0.0,0.0,98,0.00,,,0.00,WUHU21623XXSP,2012-12-03 05:00:00,
2012-12-02 21:01:00,44.4,43.9,29.66,North,0,0.0,0.0,98,0.00,,,0.00,WUHU21623XXSP,2012-12-03 05:01:00,
2012-12-02 21:03:00,44.4,43.9,29.66,SE,135,0.0,0.0,98,0.00,,,0.00,WUHU21623XXSP,2012-12-03 05:03:00,
2012-12-02 21:08:00,44.4,43.9,29.67,SW,225,0.0,0.0,98,0.00,,,0.00,WUHU21623XXSP,2012-12-03 05:08:00,
2012-12-02 21:15:00,44.4,43.9,29.67,NE,45,0.0,0.0,98,0.00,,,0.00,WUHU21623XXSP,2012-12-03 05:15:00,
2012-12-02 21:20:00,44.4,43.9,29.67,East,90,0.0,0.0,98,0.00,,,0.00,WUHU21623XXSP,2012-12-03 05:20:00,
2012-12-02 21:25:00,44.4,43.9,29.67,ESE,112,0.0,0.0,98,0.00,,,0.00,WUHU21623XXSP,2012-12-03 05:25:00,
2012-12-02 21:30:00,44.4,43.9,29.67,SE,135,0.0,0.0,98,0.00,,,0.00,WUHU21623XXSP,2012-12-03 05:30:00,
2012-12-02 21:35:00,44.4,43.9,29.67,NE,45,0.0,0.0,98,0.00,,,0.00,WUHU21623XXSP,2012-12-03 05:35:00,
2012-12-02 21:40:00,44.4,43.9,29.68,SE,135,0.0,0.0,98,0.00,,,0.00,WUHU21623XXSP,2012-12-03 05:40:00,
2012-12-02 21:45:00,44.6,43.9,29.68,SSE,157,0.0,0.0,98,0.00,,,0.00,WUHU21623XXSP,2012-12-03 05:45:00,
2012-12-02 21:50:00,44.6,44.1,29.68,ENE,67,0.0,0.0,98,0.00,,,0.00,WUHU21623XXSP,2012-12-03 05:50:00,
2012-12-02 21:55:00,44.6,44.1,29.68,SE,135,0.0,0.0,98,0.00,,,0.00,WUHU21623XXSP,2012-12-03 05:55:00,
2012-12-02 22:00:00,44.6,44.1,29.68,ESE,112,0.0,0.0,98,0.00,,,0.00,WUHU21623XXSP,2012-12-03 06:00:00,
2012-12-02 22:05:00,44.6,44.1,29.68,ESE,112,0.0,0.0,98,0.00,,,0.00,WUHU21623XXSP,2012-12-03 06:05:00,
2012-12-02 22:10:00,44.8,44.1,29.68,NNE,22,0.0,0.0,98,0.00,,,0.00,WUHU21623XXSP,2012-12-03 06:10:00,
2012-12-02 22:15:00,44.6,44.1,29.68,ESE,112,0.0,0.0,98,0.00,,,0.00,WUHU21623XXSP,2012-12-03 06:15:00,
2012-12-02 22:20:00,44.6,44.1,29.68,ESE,112,0.0,0.0,98,0.00,,,0.00,WUHU21623XXSP,2012-12-03 06:20:00,
2012-12-02 22:25:00,44.8,44.2,29.69,SE,135,0.0,0.0,98,0.00,,,0.00,WUHU21623XXSP,2012-12-03 06:25:00,
2012-12-02 22:30:00,44.6,44.1,29.69,SE,135,0.0,0.0,98,0.00,,,0.00,WUHU21623XXSP,2012-12-03 06:30:00,
2012-12-02 22:35:00,44.8,44.2,29.69,NE,45,0.0,0.0,98,0.00,,,0.00,WUHU21623XXSP,2012-12-03 06:35:00,
2012-12-02 22:40:00,44.6,44.1,29.70,SE,135,0.0,0.0,98,0.00,,,0.00,WUHU21623XXSP,2012-12-03 06:40:00,
2012-12-02 22:45:00,44.6,44.1,29.70,SSE,157,0.0,0.0,98,0.00,,,0.00,WUHU21623XXSP,2012-12-03 06:45:00,
2012-12-02 22:50:00,44.6,44.1,29.71,ESE,112,0.0,0.0,98,0.00,,,0.00,WUHU21623XXSP,2012-12-03 06:50:00,
2012-12-02 22:55:00,44.6,44.1,29.71,SSE,157,0.0,0.0,98,0.00,,,0.00,WUHU21623XXSP,2012-12-03 06:55:00,
2012-12-02 23:00:00,44.4,43.6,29.72,WSW,247,0.0,0.0,97,0.00,,,0.00,WUHU21623XXSP,2012-12-03 07:00:00,
2012-12-02 23:05:00,44.4,43.6,29.72,SE,135,0.0,0.0,97,0.00,,,0.00,WUHU21623XXSP,2012-12-03 07:05:00,
2012-12-02 23:10:00,44.4,43.6,29.72,East,90,0.0,0.0,97,0.00,,,0.00,WUHU21623XXSP,2012-12-03 07:10:00,
2012-12-02 23:15:00,44.4,43.6,29.72,NE,45,0.0,0.0,97,0.00,,,0.00,WUHU21623XXSP,2012-12-03 07:15:00,
2012-12-02 23:20:00,44.6,43.8,29.72,NNE,22,0.0,0.0,97,0.00,,,0.00,WUHU21623XXSP,2012-12-03 07:20:00,
2012-12-02 23:25:00,44.6,43.8,29.72,NNE,22,0.0,0.0,97,0.00,,,0.00,WUHU21623XXSP,2012-12-03 07:25:00,
2012-12-02 23:30:00,44.6,43.8,29.73,NNE,22,0.0,0.0,97,0.00,,,0.00,WUHU21623XXSP,2012-12-03 07:30:00,
2012-12-02 23:35:00,44.4,43.6,29.73,ESE,112,0.0,0.0,97,0.00,,,0.00,WUHU21623XXSP,2012-12-03 07:35:00,
2012-12-02 23:40:00,44.4,43.6,29.73,SE,135,0.0,0.0,97,0.00,,,0.00,WUHU21623XXSP,2012-12-03 07:40:00,
2012-12-02 23:45:00,44.4,43.6,29.74,North,0,0.0,0.0,97,0.00,,,0.00,WUHU21623XXSP,2012-12-03 07:45:00,
2012-12-02 23:50:00,44.4,43.6,29.73,ENE,67,0.0,0.0,97,0.00,,,0.00,WUHU21623XXSP,2012-12-03 07:50:00,
2012-12-02 23:55:00,44.4,43.6,29.73,SSE,157,0.0,0.0,97,0.00,,,0.00,WUHU21623XXSP,2012-12-03 07:55:00,